Location: St. Louis
(38.6270°N, 90.1994°W)
Time: 14:05:13
(UTC-06:00)

Transit 4A - Pass Details

Date: 08 December 2021
Orbit: 864 x 980 km, 66.8° (Epoch: 16 January)

Event Time Altitude Azimuth Distance (km) Brightness Sun altitude
Rises 01:11:41 0° 345° (NNW) 3,609 - -66.9°
Reaches altitude 10° 01:16:11 10° 15° (NNE) 2,689 - -66.1°
Maximum altitude 01:18:34 12° 37° (NE) 2,541 - -65.8°
Drops below altitude 10° 01:20:59 10° 60° (ENE) 2,709 - -65.4°
Sets 01:25:32 0° 90° (E) 3,669 - -64.6°
